GPS BIIF-10 (PRN 08)

Last updated on Tue Jan 21 2020 04:35:45 GMT+0000 (Coordinated Universal Time)

1 40730U 15033A 20020.38825690 -.00000085 00000-0 00000-0 0 9995 2 40730 55.5848 1.9221 0051123 345.9028 13.9573 2.00570738 33083
UTC large
Height (km)
Speed (km/s)
/
Latitude / Longitude
Inclination (degrees)
Orbital Period (minutes)
Azimuth
Elevation
Range (km)
Doppler Factor

Next 0 passes for location: London (51.5072 / 0.1276)

Sorry there are no passes over London.
GPS BIIF-10 (PRN 08)